Tracking 28794 objects as of 19-Apr-2024
HD Live streaming from Space Station
objects crossing your sky now

SCOUT G-1 DEB

Track SCOUT G-1 DEB now!
10-day predictions


NORAD ID: 19140
Int'l Code: 1988-033F
Perigee: 867.9 km
Apogee: 1,219.9 km
Inclination: 90.3 °
Period: 105.9 minutes
Semi major axis: 7414 km
RCS: 0.0071 m2 (small)
Launch date: April 26, 1988
Source: United States (US)
Launch site: AIR FORCE WESTERN TEST RANGE (AFWTR)

Note: This is SATELLITE DEBRIS
Your satellite tracking list
Your tracking list is empty




NASA's NSSDC Master Catalog

Two Line Element Set (TLE):
1 19140U 88033F   24110.16143861  .00004323  00000-0  48307-2 0  9991
2 19140  90.2998 349.5778 0237344 329.9060 189.2634 13.59700802764903
Source of the keplerian elements: AFSPC